Regional Weather Roundup
Issued by NWS Newport/Morehead, NC

Current Version | Previous Version | Text Only | Print | Product List | Glossary On
Versions: 1 2 3 4 5 6 7 8 9 10 11 12 13 14 15 16 17 18 19 20 21 22 23 24 25 26 27 28 29 30 31 32 33 34 35 36 37 38 39 40 41 42 43 44 45 46 47 48 49 50
147
ASUS42 KMHX 030213
RWRMHX
WEATHER ROUNDUP FOR EASTERN NORTH CAROLINA
NATIONAL WEATHER SERVICE NEWPORT/MOREHEAD CITY NC
900 PM EST FRI DEC 02 2016

NOTE: "FAIR" INDICATES FEW OR NO CLOUDS BELOW 12,000 FEET
WITH NO SIGNIFICANT WEATHER AND/OR OBSTRUCTIONS TO VISIBILITY

NCZ015>017-031-032-045>047-102-103-030300-
NORTH COAST

CITY           SKY/WX    TMP DP  RH WIND       PRES   REMARKS
EDENTON        CLEAR     49  38  65 CALM      30.12R
ELIZABETH CITY CLEAR     43  33  68 W6        30.11R
KITTY HAWK     CLEAR     51  40  66 W6        30.09R
MANTEO         CLEAR     49  39  67 W5        30.11R

$$

NCZ045>047-081-094-103-104-030300-
CENTRAL COAST

CITY           SKY/WX    TMP DP  RH WIND       PRES   REMARKS
FRISCO         CLEAR     52  36  54 W8        30.11R

$$

NCZ095-097-098-100-101-030300-
SOUTHERN COAST

CITY           SKY/WX    TMP DP  RH WIND       PRES   REMARKS
BEAUFORT       CLEAR     49  37  63 W7        30.14R
CEDAR ISLAND   NOT AVBL
JACKSONVILLE   CLEAR     43  38  82 W5        30.15R
PINEY ISLAND   CLEAR    N/A N/A N/A W8        30.13R
WILMINGTON     CLOUDY    45  38  76 SW6       30.17R


$$

NCZ011>013-027>030-043-044-078>080-089-090>093-098-030300-
COASTAL PLAIN

CITY           SKY/WX    TMP DP  RH WIND       PRES   REMARKS
AHOSKIE        CLEAR     38  34  85 CALM      30.13R
CLINTON        CLEAR     41  36  83 CALM      30.16S
ELIZABETHTOWN  CLEAR     43  37  78 CALM      30.16F
GOLDSBORO      CLEAR     42  36  79 CALM      30.13R
GREENVILLE     CLEAR     37  36  93 CALM      30.15R
HAVELOCK       CLEAR     41  35  79 W7        30.15R
KENANSVILLE    CLEAR     37  36  93 CALM      30.16R
KINSTON        CLEAR     39  34  81 SW3       30.15R
NEW BERN       CLEAR     41  37  86 SW5       30.15R
RICHLANDS      CLEAR     37  35  92 CALM      30.16R
ROCKY MOUNT    CLEAR     37  35  92 S3        30.14R
WASHINGTON     CLEAR     40  35  81 CALM      30.14R
WHITEVILLE     PTCLDY    44  37  78 CALM      30.17R

$$

AMZ130-135-150-152-154-156-158-170-250-252-270-ANZ085-086-088-633-658-670-030300-
MARINE OBSERVATIONS

STATION/POSITION TIME  TEMP    WIND        PRES    WAVE   SWELL
                       AIR SEA DIR/SP/G            HT/PER HT/PER
                 (UTC) (F)     (DEG/KT/KT) (MB)    (FT/S) (FT/S)
CHESAPEAKE LIGHT NOT AVBL
64 E VA BEACH    0050   53 60  270/ 12/ 14 1017.8    3/ 5   2/ 7
DUCK             0148   51 57  290/ 12/ 15 1018.6
2 E DUCK         NOT AVBL
OREGON INLET     0148          270/  6/ 12   N/A
13E OREGON INLT  0200      61                N/A     3/ 6   3/ 6
HATTERAS CG      0148   54 62  290/ 13/ 14 1019.1
DIAMOND BUOY     0050   57 75  310/ 17/ 23 1018.8    4/ 7   2/ 7
CAPE LOOKOUT     0100   55     300/ 15/ 18 1019.7
BEAUFORT LAB     0148   52 58  300/  6/  9 1019.5
30 SE NEW RVR IN 0108   58 71  310/ 16/ 21 1020.5
30 SE NEW RVR IN NOT AVBL
27 SE WRIGHTSVLE 0108   58 69  310/ 14/ 19 1020.5
5 SE WRIGHTSVLE  0108   54 64  290/ 12/ 17 1020.5
225 S CAPE HAT   0050   69 74  340/ 14/ 17 1018.1    4/ 6   3/ 6
41 SE CHARLESTON 0050   60 75  340/ 12/ 16 1021.2    3/ 5   2/ 9

$$




USA.gov is the U.S. government's official web portal to all federal, state and local government web resources and services.